Location: Darmstadt
(49.8706°N, 8.6494°E)
Time: 06:37:45
(UTC+01:00)

Cosmos 1697 Rocket - Pass Details

Date: 31 October 2020
Orbit: 831 x 845 km, 71.0° (Epoch: 03 December)

Event Time Altitude Azimuth Distance (km) Brightness Sun altitude
Rises 17:34:48 0° 170° (S) 3,364 5.9 -5.6°
Reaches altitude 10° 17:37:35 10° 158° (SSE) 2,437 5.0 -6.0°
Maximum altitude 17:42:07 26° 103° (ESE) 1,585 3.7 -6.7°
Drops below altitude 10° 17:46:41 10° 49° (NE) 2,458 4.6 -7.4°
Enters shadow 17:48:51 - 39° (NE) 3,177 5.2 -7.8°
